When you browse on this site, cookies collect data to enhance your experience and personalize the content and advertising you see.
Visit our Privacy Policy to learn more. By continuing to use the site, you agree to this use of cookies and data.
  • In Österreich
  • Länderverzeichnis
  • Für 7 Tage
  • Wassertemperatur
  • Wetterkarte
  • News
  • Widgets
  • user-avatar
    Anmelden

    Stündliche Wetter Strongsville

    Heute, 20 August, Dienstag

    Zeit Temperatur Niederschläge Wind Luftdruck Luftfeuchtigkeit
    00:00 +23°C° 0 mm 1 m/S 738 mmHg 91%
    01:00 +22°C° 0 mm 1 m/S 739 mmHg 91%
    02:00 +22°C° 0 mm 1 m/S 739 mmHg 92%
    03:00 +21°C° 0 mm 2 m/S 738 mmHg 92%
    04:00 +21°C° 0 mm 2 m/S 738 mmHg 93%
    05:00 +21°C° 0 mm 2 m/S 738 mmHg 93%
    06:00 +23°C° 0 mm 2 m/S 739 mmHg 92%
    07:00 +23°C° 0 mm 2 m/S 739 mmHg 91%
    08:00 +25°C° 0.2 mm 2 m/S 739 mmHg 86%
    09:00 +27°C° 0.2 mm 2 m/S 739 mmHg 82%
    10:00 +28°C° 0.2 mm 2 m/S 739 mmHg 77%
    11:00 +29°C° 0.3 mm 2 m/S 738 mmHg 75%
    12:00 +30°C° 0.3 mm 3 m/S 738 mmHg 73%
    13:00 +30°C° 0.3 mm 3 m/S 738 mmHg 71%
    14:00 +30°C° 0.3 mm 3 m/S 737 mmHg 71%
    15:00 +31°C° 0.3 mm 3 m/S 737 mmHg 71%
    16:00 +31°C° 0.3 mm 2 m/S 737 mmHg 71%
    17:00 +29°C° 0.1 mm 2 m/S 736 mmHg 75%
    18:00 +28°C° 0.1 mm 2 m/S 736 mmHg 79%
    19:00 +27°C° 0.1 mm 2 m/S 736 mmHg 83%
    20:00 +26°C° 0 mm 2 m/S 736 mmHg 84%
    21:00 +25°C° 0 mm 2 m/S 735 mmHg 85%
    22:00 +25°C° 0 mm 2 m/S 735 mmHg 87%
    23:00 +24°C° 0.3 mm 2 m/S 735 mmHg 88%

    Morgen, 21 August, Mittwoch

    Zeit Temperatur Niederschläge Wind Luftdruck Luftfeuchtigkeit
    00:00 +24°C° 0.3 mm 2 m/S 735 mmHg 90%
    01:00 +22°C° 0.3 mm 3 m/S 735 mmHg 92%
    02:00 +22°C° 0 mm 3 m/S 735 mmHg 93%
    03:00 +22°C° 0 mm 3 m/S 734 mmHg 94%
    04:00 +21°C° 0 mm 3 m/S 734 mmHg 95%
    05:00 +21°C° 0 mm 3 m/S 734 mmHg 93%
    06:00 +21°C° 0 mm 3 m/S 734 mmHg 92%
    07:00 +22°C° 0 mm 3 m/S 734 mmHg 90%
    08:00 +24°C° 0.1 mm 3 m/S 734 mmHg 86%
    09:00 +26°C° 0.1 mm 4 m/S 734 mmHg 82%
    10:00 +27°C° 0.1 mm 4 m/S 734 mmHg 78%
    11:00 +28°C° 0.5 mm 4 m/S 734 mmHg 79%
    12:00 +29°C° 0.5 mm 4 m/S 734 mmHg 79%
    13:00 +29°C° 0.5 mm 5 m/S 734 mmHg 79%
    14:00 +29°C° 0.3 mm 5 m/S 734 mmHg 79%
    15:00 +29°C° 0.3 mm 5 m/S 733 mmHg 79%
    16:00 +29°C° 0.3 mm 5 m/S 733 mmHg 79%
    17:00 +28°C° 0.3 mm 5 m/S 733 mmHg 82%
    18:00 +27°C° 0.3 mm 5 m/S 733 mmHg 86%
    19:00 +26°C° 0.3 mm 4 m/S 734 mmHg 90%
    20:00 +25°C° 0.1 mm 4 m/S 734 mmHg 91%
    21:00 +25°C° 0.1 mm 4 m/S 734 mmHg 92%
    22:00 +24°C° 0.1 mm 3 m/S 734 mmHg 94%
    23:00 +24°C° 0 mm 3 m/S 734 mmHg 94%

    übermorgen, 22 August, Donnerstag

    Zeit Temperatur Niederschläge Wind Luftdruck Luftfeuchtigkeit
    00:00 +22°C° 0 mm 4 m/S 735 mmHg 94%
    01:00 +21°C° 0 mm 4 m/S 735 mmHg 94%
    02:00 +20°C° 0 mm 4 m/S 735 mmHg 91%
    03:00 +19°C° 0 mm 4 m/S 735 mmHg 88%
    04:00 +18°C° 0 mm 4 m/S 735 mmHg 84%
    05:00 +18°C° 0 mm 4 m/S 736 mmHg 84%
    06:00 +18°C° 0 mm 4 m/S 736 mmHg 83%
    07:00 +18°C° 0 mm 3 m/S 737 mmHg 82%
    08:00 +19°C° 0 mm 4 m/S 737 mmHg 79%
    09:00 +19°C° 0 mm 4 m/S 737 mmHg 76%
    10:00 +20°C° 0 mm 4 m/S 737 mmHg 73%
    11:00 +20°C° 0.1 mm 3 m/S 737 mmHg 74%
    12:00 +20°C° 0.1 mm 3 m/S 737 mmHg 76%
    13:00 +20°C° 0.1 mm 2 m/S 738 mmHg 77%
    14:00 +20°C° 0 mm 2 m/S 737 mmHg 77%
    15:00 +20°C° 0 mm 2 m/S 737 mmHg 77%
    16:00 +20°C° 0 mm 3 m/S 737 mmHg 77%
    17:00 +19°C° 0 mm 3 m/S 737 mmHg 75%
    18:00 +19°C° 0 mm 2 m/S 737 mmHg 73%
    19:00 +18°C° 0 mm 2 m/S 737 mmHg 71%
    20:00 +17°C° 0 mm 2 m/S 737 mmHg 72%
    21:00 +17°C° 0 mm 2 m/S 737 mmHg 73%
    22:00 +16°C° 0 mm 3 m/S 738 mmHg 74%
    23:00 +16°C° 0 mm 2 m/S 738 mmHg 74%

    23 August, Freitag

    Zeit Temperatur Niederschläge Wind Luftdruck Luftfeuchtigkeit
    00:00 +15°C° 0 mm 2 m/S 738 mmHg 74%
    01:00 +15°C° 0 mm 2 m/S 738 mmHg 75%
    02:00 +15°C° 0 mm 2 m/S 738 mmHg 75%
    03:00 +14°C° 0 mm 2 m/S 738 mmHg 75%
    04:00 +14°C° 0 mm 1 m/S 738 mmHg 76%
    05:00 +14°C° 0 mm 1 m/S 738 mmHg 77%
    06:00 +15°C° 0 mm 2 m/S 739 mmHg 78%
    07:00 +15°C° 0 mm 2 m/S 739 mmHg 80%
    08:00 +17°C° 0 mm 2 m/S 740 mmHg 75%
    09:00 +19°C° 0 mm 2 m/S 740 mmHg 70%
    10:00 +21°C° 0 mm 2 m/S 740 mmHg 65%
    11:00 +21°C° 0 mm 2 m/S 740 mmHg 64%
    12:00 +23°C° 0 mm 2 m/S 740 mmHg 64%
    13:00 +22°C° 0 mm 3 m/S 740 mmHg 63%
    14:00 +22°C° 0 mm 3 m/S 739 mmHg 64%
    15:00 +22°C° 0 mm 3 m/S 739 mmHg 65%
    16:00 +22°C° 0 mm 4 m/S 739 mmHg 66%
    17:00 +20°C° 0 mm 3 m/S 739 mmHg 69%
    18:00 +19°C° 0 mm 3 m/S 739 mmHg 73%
    19:00 +17°C° 0 mm 3 m/S 739 mmHg 76%
    20:00 +17°C° 0 mm 3 m/S 740 mmHg 76%
    21:00 +16°C° 0 mm 2 m/S 740 mmHg 76%
    22:00 +15°C° 0 mm 2 m/S 740 mmHg 76%
    23:00 +15°C° 0 mm 2 m/S 740 mmHg 78%

    24 August, Samstag

    Zeit Temperatur Niederschläge Wind Luftdruck Luftfeuchtigkeit
    00:00 +14°C° 0 mm 2 m/S 741 mmHg 81%
    01:00 +14°C° 0 mm 2 m/S 741 mmHg 83%
    02:00 +13°C° 0 mm 2 m/S 741 mmHg 85%
    03:00 +13°C° 0 mm 1 m/S 741 mmHg 87%
    04:00 +13°C° 0 mm 1 m/S 741 mmHg 88%
    05:00 +13°C° 0 mm 1 m/S 741 mmHg 87%
    06:00 +14°C° 0 mm 2 m/S 741 mmHg 85%
    07:00 +14°C° 0 mm 2 m/S 742 mmHg 84%
    08:00 +16°C° 0 mm 2 m/S 742 mmHg 77%
    09:00 +18°C° 0 mm 2 m/S 742 mmHg 69%
    10:00 +20°C° 0 mm 2 m/S 742 mmHg 62%
    11:00 +21°C° 0 mm 3 m/S 742 mmHg 60%
    12:00 +22°C° 0 mm 3 m/S 742 mmHg 59%
    13:00 +24°C° 0 mm 3 m/S 741 mmHg 57%
    14:00 +23°C° 0 mm 4 m/S 741 mmHg 58%
    15:00 +23°C° 0 mm 4 m/S 741 mmHg 59%
    16:00 +23°C° 0 mm 4 m/S 740 mmHg 61%
    17:00 +21°C° 0 mm 4 m/S 740 mmHg 66%
    18:00 +20°C° 0 mm 4 m/S 740 mmHg 72%
    19:00 +18°C° 0 mm 4 m/S 740 mmHg 77%
    20:00 +17°C° 0 mm 4 m/S 740 mmHg 81%
    21:00 +15°C° 0 mm 4 m/S 740 mmHg 84%
    22:00 +15°C° 0 mm 4 m/S 741 mmHg 87%
    23:00 +14°C° 0 mm 4 m/S 740 mmHg 89%

    25 August, Sonntag

    Zeit Temperatur Niederschläge Wind Luftdruck Luftfeuchtigkeit
    00:00 +14°C° 0 mm 4 m/S 740 mmHg 90%
    01:00 +13°C° 0 mm 3 m/S 740 mmHg 92%
    02:00 +13°C° 0 mm 4 m/S 740 mmHg 88%
    03:00 +13°C° 0 mm 4 m/S 739 mmHg 84%
    04:00 +13°C° 0 mm 4 m/S 739 mmHg 80%
    05:00 +14°C° 0 mm 4 m/S 739 mmHg 80%
    06:00 +14°C° 0 mm 5 m/S 739 mmHg 79%
    07:00 +14°C° 0 mm 5 m/S 739 mmHg 79%
    08:00 +16°C° 0 mm 5 m/S 739 mmHg 78%
    09:00 +19°C° 0 mm 5 m/S 739 mmHg 77%
    10:00 +21°C° 0 mm 5 m/S 739 mmHg 75%
    11:00 +22°C° 0 mm 5 m/S 739 mmHg 74%
    12:00 +25°C° 0 mm 5 m/S 739 mmHg 73%
    13:00 +26°C° 0 mm 5 m/S 739 mmHg 71%
    14:00 +26°C° 0 mm 4 m/S 738 mmHg 72%
    15:00 +26°C° 0 mm 4 m/S 738 mmHg 73%
    16:00 +26°C° 0 mm 4 m/S 738 mmHg 74%
    17:00 +25°C° 0 mm 4 m/S 738 mmHg 76%
    18:00 +23°C° 0 mm 4 m/S 738 mmHg 78%
    19:00 +22°C° 0 mm 4 m/S 737 mmHg 80%
    20:00 +22°C° 0.1 mm 4 m/S 738 mmHg 83%
    21:00 +21°C° 0.1 mm 5 m/S 738 mmHg 87%
    22:00 +20°C° 0.1 mm 5 m/S 738 mmHg 90%
    23:00 +20°C° 0.8 mm 5 m/S 738 mmHg 92%
    Mehr zeigen